Temperature
20 20 20 20 20 20 20 20 20 20 20 20 20 20 19 19 19 19 19 19 19 19 19 19 18 18 18 18 18 18 18 18 18 18 17 17 17 17 17 17 17 17 17
21 20 20 20 20 20 20 20 20 20 20 20 20 19 19 19 19 19 19 19 19 19 18 18 18 18 18 18 18 18 18 18 18 17 17 17 17 17 17 17 17 17 17
21 20 20 20 20 20 20 20 20 20 20 20 20 19 19 19 19 19 19 19 19 19 18 18 18 18 18 18 18 18 18 17 17 17 17 17 17 17 17 17 17 17 17
21 21 20 20 20 20 20 20 20 20 20 19 19 19 19 19 19 19 19 19 19 18 18 18 18 18 18 18 18 18 17 17 17 17 17 17 17 17 17 17 17 17 17
21 21 20 20 20 20 20 20 20 20 20 19 19 19 19 19 19 19 19 19 18 18 18 18 18 18 18 18 18 17 17 17 17 17 17 17 17 17 17 17 17 17 17
21 20 20 20 20 20 20 20 20 20 19 19 19 19 19 19 19 19 19 18 18 18 18 18 18 18 18 18 17 17 17 17 17 17 17 17 17 17 17 17 17 17 17
21 20 20 20 20 20 20 20 19 19 19 19 19 19 19 19 19 19 18 18 18 18 18 18 18 18 18 17 17 17 17 17 17 17 17 17 17 17 17 17 17 17 17
21 20 20 20 20 20 20 19 19 19 19 19 19 19 19 19 19 18 18 18 18 18 18 18 18 18 18 17 17 17 17 17 17 17 17 17 17 17 17 17 17 17 17
20 20 20 20 20 20 19 19 19 19 19 19 19 19 18 18 18 18 18 18 18 18 18 18 18 18 18 18 17 17 17 17 17 17 17 17 17 16 16 16 16 17 17
20 20 20 20 20 19 19 19 19 19 19 19 18 18 18 18 18 18 18 18 18 18 18 18 18 17 17 17 17 17 17 17 17 17 17 17 17 17 16 16 16 16 16
19 19 20 19 19 19 19 19 19 19 19 18 18 18 18 18 18 18 18 18 17 17 17 17 17 17 17 17 17 17 17 17 17 17 17 17 17 17 16 16 16 16 16
19 19 19 19 19 19 19 19 19 19 18 18 18 18 18 18 18 17 17 17 17 17 17 17 17 17 17 17 17 17 17 17 17 17 17 17 17 16 16 16 16 16 16
20 19 19 19 19 19 19 19 19 18 18 18 18 18 17 17 17 17 17 17 17 17 17 17 17 17 17 17 17 17 17 17 17 17 17 17 17 16 16 16 16 16 16
19 19 19 19 19 19 19 18 18 18 18 18 18 17 17 17 17 17 17 17 17 17 16 16 16 16 16 16 16 16 16 16 16 17 17 17 17 16 16 16 16 16 16
19 19 19 19 19 19 18 18 18 18 18 17 17 17 17 17 17 16 16 16 16 16 16 16 16 16 16 16 16 16 16 16 16 16 16 16 16 16 16 16 16 16 16
19 19 19 19 19 18 18 18 18 17 17 17 17 17 17 16 16 16 16 16 16 16 16 16 16 16 16 16 16 16 16 16 16 16 16 16 16 16 16 16 16 16 16
19 19 19 19 18 18 18 18 17 17 17 17 17 17 16 16 16 16 16 16 16 15 15 15 15 15 15 15 15 15 16 16 16 16 16 16 16 16 16 16 16 16 15
18 18 18 18 18 18 17 17 17 17 16 16 16 16 16 16 16 16 16 15 15 15 15 15 15 15 15 15 15 15 15 15 15 15 16 16 16 16 16 16 16 15 15
18 18 18 18 18 17 17 17 17 16 16 16 16 16 16 15 15 15 15 15 15 14 14 14 15 15 15 15 15 15 15 15 15 15 15 15 15 15 15 15 15 15 15
18 17 17 17 17 17 17 16 16 16 16 16 15 15 15 15 15 15 15 14 14 14 14 14 14 14 14 14 14 14 15 15 15 15 15 15 15 14 15 15 15 15 15
17 17 17 17 17 16 16 16 16 15 15 15 15 15 14 14 14 14 14 14 14 14 14 14 14 14 14 14 14 14 14 14 14 14 14 14 14 14 14 14 14 14 14
18 17 17 17 16 16 16 15 15 15 15 15 14 14 14 14 14 14 14 14 14 13 13 13 13 13 13 13 13 13 13 13 13 13 13 13 13 13 13 14 14 14 14
17 17 16 16 16 15 15 15 15 14 14 14 14 14 14 14 14 14 13 13 13 13 13 13 13 13 13 12 12 12 12 12 12 13 13 13 13 13 13 13 13 13 13
17 16 16 16 16 15 15 14 14 14 14 14 14 14 13 13 13 13 13 13 13 13 13 12 12 12 12 12 12 12 11 11 11 11 12 12 12 12 12 13 13 13 13
16 16 16 15 15 15 14 14 14 14 14 13 13 13 13 13 13 13 13 12 12 12 12 12 12 12 12 12 11 11 11 11 11 10 11 11 12 12 12 12 12 12 12
15 15 15 15 15 14 14 14 14 13 13 13 13 13 13 12 12 12 12 12 12 12 12 12 11 11 11 11 11 11 11 10 10 10 10 10 11 11 11 11 12 12 12
Wind_Speed
7 12 19 18 18 18 18 17 18 18 18 19 19 19 18 18 17 16 15 14 13 12 11 10 9 9 9 9 9 9 10 10 10 11 11 11 11 11 11 11 11 10 12
12 15 19 19 18 18 18 17 17 17 17 17 17 17 17 17 16 15 14 13 12 11 10 9 9 9 8 8 8 9 9 9 9 10 10 10 10 11 11 10 10 9 12
14 16 19 19 18 18 18 17 17 16 16 16 16 16 16 15 14 14 13 12 11 10 9 9 8 8 8 7 8 8 8 8 8 8 8 7 8 10 11 11 11 11 11
15 16 17 19 18 18 17 17 16 16 15 15 15 15 14 14 13 12 11 11 10 9 9 8 8 7 7 7 6 6 6 6 7 7 6 6 6 10 11 12 12 12 12
12 14 17 19 18 17 17 16 15 15 15 14 14 14 13 13 12 11 10 10 9 9 8 7 7 6 6 6 5 5 5 5 6 6 6 6 5 9 11 12 13 12 12
11 13 17 19 18 17 17 16 15 15 14 14 13 13 12 11 11 10 9 9 8 7 7 6 6 5 5 5 4 4 4 4 5 4 6 7 7 9 11 12 13 13 13
11 11 15 18 17 16 16 15 14 14 13 13 12 11 11 10 10 9 9 8 7 6 6 5 5 4 4 4 4 4 4 4 4 4 5 7 9 11 12 13 13 13 14
11 9 13 16 16 15 15 14 14 13 12 12 11 11 10 9 9 8 8 7 7 7 6 5 5 5 4 4 4 4 4 5 4 4 5 7 10 13 13 14 14 14 14
9 8 8 12 13 14 14 13 13 12 11 11 10 10 9 9 8 8 8 8 7 7 6 6 6 6 6 6 6 6 6 6 4 4 6 6 9 13 14 14 15 16 15
7 6 5 7 9 10 10 12 11 11 11 10 10 9 9 8 8 8 8 8 8 8 7 7 8 8 7 7 7 7 7 6 5 6 6 7 10 12 14 15 16 17 17
7 5 4 5 6 7 8 9 10 10 10 9 8 9 8 6 6 6 7 7 8 8 8 8 8 9 8 8 8 8 7 5 5 6 7 9 12 13 14 16 17 18 18
9 8 5 5 5 6 7 7 7 7 7 7 6 6 5 5 5 5 6 8 8 8 8 7 7 8 7 6 6 6 5 5 6 6 8 10 12 13 14 16 18 18 18
8 8 7 6 5 5 4 4 4 5 5 5 5 5 4 4 3 4 3 4 5 5 4 5 5 5 5 4 3 4 5 5 6 7 8 11 12 13 14 16 17 18 19
6 7 6 6 5 5 4 3 4 3 3 4 4 5 4 2 2 2 2 2 2 3 2 2 2 4 4 4 4 4 5 5 6 7 8 11 12 12 14 14 16 18 18
6 6 6 6 6 5 4 3 4 3 3 4 3 3 4 2 2 1 1 1 2 2 2 2 2 3 3 3 3 4 4 5 6 7 7 10 11 12 13 14 16 17 18
6 5 5 5 6 5 5 4 3 3 3 3 3 3 4 3 2 1 1 1 1 1 2 2 2 2 2 2 3 4 5 5 6 6 7 8 10 11 12 13 15 16 18
4 4 4 5 4 5 5 5 3 3 3 2 2 3 3 3 3 2 1 1 1 1 1 1 1 1 2 2 4 4 4 4 5 6 6 6 8 10 11 11 13 15 16
3 3 2 3 4 4 4 3 2 2 2 2 2 2 2 3 3 2 1 1 1 1 0 1 1 1 2 3 4 4 3 3 5 5 4 4 5 6 8 9 10 11 13
3 3 3 2 2 2 3 2 2 2 1 2 2 2 2 2 3 2 1 1 1 0 1 1 1 1 2 3 4 3 3 3 3 3 3 3 3 4 5 6 8 9 10
3 3 2 2 2 2 2 2 1 1 1 1 1 1 2 2 3 2 1 0 1 0 1 1 1 1 1 2 3 3 2 2 2 2 2 2 2 3 4 5 5 6 8
3 3 2 2 1 2 1 1 1 1 0 0 0 1 2 2 2 2 1 1 1 1 1 1 1 1 1 1 1 2 2 2 2 2 2 2 2 4 4 5 4 4 5
3 2 2 1 1 1 1 1 1 1 1 1 0 1 0 1 2 2 2 1 1 1 0 1 0 0 0 0 0 0 2 3 2 2 2 2 3 3 3 4 4 4 4
3 3 2 1 1 1 1 2 2 2 1 1 1 1 1 0 1 1 1 1 1 1 1 1 1 1 1 1 0 1 1 2 3 2 2 3 3 3 3 4 4 4 4
3 2 2 1 2 2 2 3 3 2 1 1 1 0 1 2 1 1 1 1 1 1 1 2 1 1 1 1 1 1 1 2 1 2 3 2 3 4 4 4 3 3 3
2 2 2 2 3 2 2 2 2 1 0 1 1 1 1 2 2 1 1 0 1 1 1 1 0 1 1 2 1 1 1 1 2 2 3 4 3 3 4 3 3 3 3
2 2 2 3 2 2 3 3 3 2 1 1 1 1 1 2 1 2 1 1 0 1 1 1 1 1 1 2 2 2 2 2 2 2 3 4 4 4 4 3 2 2 2
Wind_Direction
157 158 156 149 143 137 132 128 123 120 119 120 122 126 130 133 136 138 140 140 140 139 136 132 127 123 119 117 118 121 124 127 129 134 140 142 142 138 138 137 134 136 136
149 156 156 151 146 141 136 132 128 125 123 124 125 127 130 133 135 137 140 142 142 141 139 137 133 129 127 125 125 127 130 134 138 141 144 147 149 147 147 146 142 144 143
144 153 154 153 149 144 140 136 133 131 130 129 129 131 133 135 137 139 141 143 145 145 144 142 139 136 133 132 133 136 138 142 147 149 144 144 155 159 159 157 154 151 149
143 148 154 155 152 147 143 140 138 137 136 135 135 137 138 139 140 142 145 147 147 147 148 148 146 141 139 140 142 145 149 153 157 154 146 157 170 174 171 166 164 162 159
140 146 156 156 154 151 148 145 144 144 143 143 143 143 144 145 146 147 149 151 152 152 155 155 153 149 147 149 152 156 163 167 172 166 169 181 188 184 180 174 171 171 169
138 146 157 158 157 156 153 151 151 151 151 151 150 149 151 153 154 155 158 161 162 163 165 165 161 159 158 161 167 174 181 188 183 177 186 194 197 194 188 184 180 178 176
142 147 157 159 159 159 157 157 157 158 158 158 158 158 160 161 163 166 170 174 176 177 178 181 179 180 184 185 191 200 207 212 194 197 202 206 208 207 200 195 191 187 184
144 145 155 161 161 163 163 162 163 164 165 166 167 169 171 173 175 179 183 188 192 195 196 197 203 208 211 215 217 221 231 235 219 219 219 218 218 214 210 204 199 197 193
137 140 151 162 165 166 167 169 170 171 172 174 176 180 183 187 191 197 200 203 208 210 214 217 221 225 226 227 230 234 242 246 236 231 233 229 228 223 217 211 205 203 200
137 143 148 155 158 162 169 174 176 178 182 186 189 193 197 201 206 211 213 217 223 226 231 235 236 236 238 239 240 242 247 250 247 243 241 240 237 230 223 216 211 207 206
153 156 154 152 152 158 168 180 182 185 191 196 201 205 207 210 221 230 231 231 235 237 241 247 248 246 246 248 248 250 255 245 241 247 244 245 243 237 230 222 218 214 211
172 174 168 162 160 162 176 179 180 185 192 198 203 210 210 216 231 242 252 250 248 245 247 253 257 254 254 253 255 261 256 248 245 250 250 252 249 243 235 228 223 221 217
176 175 177 177 172 173 178 171 175 182 183 193 202 208 212 220 237 254 265 270 268 260 258 263 263 257 254 249 249 254 253 253 254 255 254 255 253 246 238 233 228 226 224
171 182 182 180 180 186 184 183 179 183 189 196 205 204 202 215 245 256 253 259 265 262 260 266 269 267 265 258 247 253 258 254 254 256 259 261 260 252 245 240 236 232 228
178 188 190 185 189 189 187 200 193 196 199 200 198 204 201 202 226 244 264 264 265 257 252 260 264 273 277 279 267 264 268 267 262 257 260 268 271 265 253 247 244 240 235
191 197 189 190 190 187 199 202 202 196 205 199 191 204 201 197 197 212 241 262 280 279 276 276 278 259 268 275 277 272 265 265 265 264 263 271 276 275 265 255 250 245 239
193 193 186 188 188 190 202 204 193 182 183 184 180 192 190 186 182 181 208 240 292 295 300 304 295 291 283 280 277 274 267 266 268 273 274 275 277 277 274 267 260 252 245
166 164 184 188 180 189 193 189 174 151 158 167 159 164 179 184 170 150 185 232 316 341 316 249 268 273 282 288 284 280 277 275 274 275 275 279 280 281 282 280 273 262 253
159 154 160 155 168 183 173 153 135 135 145 141 138 141 153 166 160 145 166 208 113 6 270 261 248 235 273 288 281 276 284 281 281 283 283 291 284 280 284 286 281 271 262
142 132 132 127 120 131 129 119 112 103 90 90 107 143 152 154 160 140 136 158 115 194 279 289 266 263 266 283 286 298 300 296 292 291 293 312 312 298 288 280 280 278 272
123 113 106 95 79 105 127 154 154 167 159 125 229 163 149 157 163 147 162 171 142 162 242 281 261 270 300 319 324 327 323 313 301 304 306 308 318 314 302 293 284 277 283
145 140 126 127 122 145 168 151 143 139 155 182 257 20 184 190 187 161 161 178 165 157 39 340 308 245 316 36 127 346 321 326 336 321 310 309 321 327 315 306 293 280 277
155 163 167 187 163 134 112 106 89 70 57 49 29 357 338 13 141 135 170 175 170 170 229 254 245 206 256 273 211 156 177 265 310 311 322 331 333 324 314 308 295 283 269
180 157 136 124 94 92 112 136 143 149 181 232 233 264 345 28 51 74 114 161 190 211 234 248 201 208 202 234 258 235 208 201 239 298 311 321 325 318 311 310 306 295 278
157 138 131 108 82 87 110 127 125 104 54 21 44 38 4 4 11 22 20 214 217 228 236 249 217 199 207 211 212 217 225 233 225 240 287 308 317 307 302 299 299 302 308
128 120 111 104 83 78 90 99 112 119 106 78 47 32 360 341 334 349 1 8 289 232 250 270 267 240 229 229 229 214 208 217 230 229 259 293 305 309 309 300 300 301 313
Height
1516 1519 1522 1524 1527 1529 1530 1532 1533 1535 1536 1538 1539 1540 1542 1543 1544 1546 1547 1548 1548 1549 1550 1551 1551 1552 1552 1552 1552 1553 1553 1553 1554 1554 1554 1555 1555 1555 1556 1556 1557 1557 1558
1515 1519 1522 1525 1527 1529 1531 1532 1534 1536 1537 1539 1540 1541 1542 1544 1545 1546 1547 1548 1549 1549 1550 1551 1551 1552 1552 1552 1552 1553 1553 1553 1554 1554 1555 1555 1556 1556 1556 1557 1557 1558 1558
1515 1519 1522 1525 1528 1530 1531 1533 1535 1536 1538 1539 1540 1542 1543 1544 1545 1547 1548 1548 1549 1550 1551 1551 1551 1552 1552 1552 1553 1553 1553 1554 1554 1555 1555 1556 1556 1557 1557 1557 1558 1558 1558
1516 1519 1522 1525 1528 1530 1532 1534 1535 1537 1538 1540 1541 1542 1544 1545 1546 1547 1548 1549 1549 1550 1551 1551 1551 1552 1552 1552 1553 1553 1553 1554 1554 1555 1556 1556 1556 1557 1557 1557 1558 1558 1558
1517 1520 1523 1526 1528 1530 1532 1534 1535 1537 1538 1540 1541 1542 1544 1545 1546 1547 1548 1549 1549 1550 1550 1551 1551 1552 1552 1552 1552 1553 1553 1554 1554 1555 1555 1556 1556 1556 1557 1557 1557 1558 1558
1517 1520 1523 1526 1528 1531 1532 1534 1536 1537 1539 1540 1541 1542 1543 1545 1546 1547 1548 1548 1549 1550 1550 1551 1551 1551 1551 1552 1552 1552 1553 1553 1554 1554 1555 1555 1556 1556 1556 1557 1557 1557 1558
1518 1521 1524 1526 1528 1531 1532 1534 1536 1537 1539 1540 1541 1542 1543 1544 1545 1546 1547 1548 1549 1549 1550 1550 1550 1551 1551 1551 1551 1552 1552 1553 1553 1554 1554 1555 1555 1555 1555 1556 1556 1557 1557
1519 1522 1524 1527 1529 1531 1533 1534 1536 1537 1539 1540 1541 1542 1543 1544 1545 1546 1546 1547 1548 1548 1549 1549 1549 1550 1550 1550 1551 1551 1551 1552 1552 1553 1553 1554 1554 1554 1554 1555 1555 1556 1556
1520 1523 1525 1527 1529 1531 1532 1534 1536 1537 1538 1540 1541 1541 1542 1543 1544 1545 1545 1546 1547 1547 1547 1548 1548 1549 1549 1549 1549 1550 1550 1550 1551 1551 1552 1552 1552 1553 1553 1553 1554 1554 1555
1521 1523 1525 1527 1528 1530 1532 1534 1535 1537 1538 1539 1540 1541 1542 1542 1543 1544 1545 1545 1546 1546 1546 1546 1547 1547 1547 1547 1548 1548 1548 1548 1549 1549 1550 1550 1551 1551 1551 1552 1552 1553 1553
1520 1522 1525 1527 1528 1530 1532 1533 1534 1536 1537 1538 1539 1540 1541 1541 1542 1543 1543 1544 1544 1545 1545 1545 1545 1545 1545 1545 1546 1546 1546 1546 1547 1547 1547 1548 1548 1549 1549 1550 1550 1551 1551
1519 1521 1524 1526 1528 1529 1531 1532 1533 1534 1536 1537 1538 1539 1539 1540 1541 1541 1542 1542 1543 1543 1543 1543 1543 1543 1543 1543 1543 1543 1544 1544 1544 1544 1545 1545 1546 1546 1546 1547 1548 1548 1549
1519 1521 1523 1525 1527 1529 1530 1531 1532 1533 1534 1535 1536 1537 1538 1538 1539 1539 1540 1540 1540 1540 1541 1540 1541 1541 1541 1541 1541 1540 1540 1541 1541 1541 1541 1542 1542 1543 1543 1544 1544 1545 1546
1519 1521 1523 1524 1526 1527 1529 1530 1531 1532 1533 1534 1534 1535 1536 1536 1537 1537 1537 1538 1538 1538 1538 1538 1538 1538 1538 1538 1537 1537 1537 1537 1537 1538 1538 1539 1539 1540 1540 1541 1541 1542 1543
1519 1520 1521 1523 1524 1526 1527 1528 1529 1530 1531 1532 1532 1533 1533 1534 1534 1534 1534 1535 1535 1535 1535 1535 1535 1535 1535 1534 1534 1534 1534 1534 1534 1534 1535 1535 1536 1536 1536 1537 1537 1538 1539
1518 1519 1520 1522 1523 1525 1526 1527 1528 1528 1529 1530 1530 1531 1531 1531 1532 1532 1532 1532 1532 1532 1532 1532 1531 1531 1531 1531 1531 1531 1531 1530 1530 1530 1530 1531 1532 1532 1532 1533 1533 1534 1535
1517 1518 1519 1521 1522 1523 1524 1525 1526 1527 1527 1528 1528 1528 1528 1528 1528 1529 1529 1529 1529 1529 1528 1528 1528 1528 1527 1527 1527 1527 1527 1526 1526 1526 1526 1526 1527 1527 1527 1528 1529 1529 1530
1516 1517 1518 1519 1520 1521 1521 1522 1524 1525 1525 1525 1525 1526 1526 1526 1526 1525 1525 1525 1526 1525 1525 1525 1524 1524 1524 1523 1523 1523 1522 1522 1522 1522 1521 1521 1522 1522 1522 1523 1523 1524 1525
1515 1516 1517 1517 1518 1519 1519 1520 1521 1521 1522 1523 1522 1523 1523 1523 1523 1522 1522 1522 1522 1522 1522 1522 1521 1520 1520 1519 1519 1518 1518 1518 1517 1517 1517 1517 1517 1517 1517 1517 1518 1519 1520
1513 1515 1515 1515 1516 1516 1517 1517 1518 1519 1519 1520 1520 1520 1520 1520 1520 1520 1519 1519 1519 1518 1519 1519 1518 1517 1516 1516 1515 1514 1514 1513 1513 1513 1512 1512 1512 1512 1512 1512 1512 1513 1514
1512 1513 1513 1514 1514 1514 1514 1515 1515 1515 1517 1518 1518 1518 1518 1518 1518 1517 1516 1516 1516 1515 1515 1515 1515 1514 1513 1513 1512 1511 1510 1510 1509 1509 1509 1508 1508 1508 1508 1508 1508 1508 1509
1510 1511 1512 1512 1512 1512 1512 1513 1513 1513 1514 1515 1516 1516 1516 1515 1515 1514 1514 1513 1513 1513 1512 1512 1512 1511 1510 1510 1509 1508 1507 1507 1506 1506 1505 1505 1505 1504 1504 1504 1504 1504 1504
1508 1508 1510 1510 1510 1511 1511 1511 1511 1511 1512 1513 1513 1513 1513 1513 1513 1512 1511 1511 1511 1510 1510 1509 1509 1508 1507 1507 1506 1506 1505 1504 1503 1502 1502 1502 1501 1501 1500 1500 1500 1500 1500
1506 1507 1508 1508 1509 1509 1509 1510 1510 1510 1510 1510 1511 1511 1511 1511 1510 1510 1509 1509 1508 1508 1507 1506 1506 1505 1505 1504 1503 1503 1504 1503 1502 1499 1499 1498 1498 1497 1497 1496 1496 1496 1496
1505 1506 1506 1507 1507 1508 1508 1509 1509 1508 1509 1509 1509 1509 1509 1509 1508 1508 1507 1506 1506 1505 1504 1504 1503 1502 1502 1501 1501 1500 1500 1499 1499 1498 1496 1495 1495 1494 1494 1493 1492 1492 1492
1504 1504 1505 1506 1506 1507 1507 1507 1507 1507 1507 1507 1507 1507 1507 1506 1506 1505 1505 1504 1504 1503 1502 1501 1500 1500 1499 1499 1498 1498 1497 1497 1496 1495 1494 1492 1491 1491 1490 1490 1489 1489 1489